| time (UTC) | temp C | wind direction | speed KPH | gust KPH | rain 1hr cm | rain 24hr cm | rain mn cm | humidity % | barometer mb |
| 20260505181524 | 3 | 147 | 8.0 | 14.5 | 0.00 | 0.10 | 0.00 | 93 | 1014.4 |
| 20260505180520 | 3 | 126 | 6.4 | 14.5 | 0.00 | 0.10 | 0.00 | 93 | 1014.7 |
| 20260505175517 | 3 | 108 | 4.8 | 8.0 | 0.00 | 0.10 | 0.00 | 92 | 1014.7 |
| 20260505174533 | 3 | 140 | 4.8 | 11.3 | 0.00 | 0.10 | 0.00 | 91 | 1014.7 |
| 20260505173529 | 3 | 211 | 1.6 | 4.8 | 0.00 | 0.10 | 0.00 | 91 | 1014.8 |
| 20260505172525 | 3 | 79 | 4.8 | 9.7 | 0.00 | 0.10 | 0.00 | 90 | 1014.9 |
| 20260505171522 | 3 | 141 | 4.8 | 11.3 | 0.00 | 0.10 | 0.00 | 90 | 1015.0 |
| 20260505170517 | 3 | 135 | 6.4 | 12.9 | 0.00 | 0.10 | 0.00 | 88 | 1015.1 |
| 20260505165534 | 3 | 141 | 6.4 | 14.5 | 0.00 | 0.10 | 0.00 | 88 | 1015.0 |
| 20260505164530 | 3 | 114 | 6.4 | 9.7 | 0.00 | 0.10 | 0.00 | 88 | 1015.2 |
| 20260505163546 | 3 | 127 | 4.8 | 9.7 | 0.00 | 0.10 | 0.00 | 87 | 1014.8 |
| 20260505162522 | 3 | 33 | 4.8 | 9.7 | 0.00 | 0.10 | 0.00 | 86 | 1015.0 |
| 20260505161538 | 3 | 59 | 3.2 | 9.7 | 0.00 | 0.10 | 0.00 | 85 | 1014.9 |
| 20260505160534 | 3 | 41 | 3.2 | 12.9 | 0.00 | 0.10 | 0.00 | 85 | 1015.0 |
| 20260505152519 | 3 | 13 | 4.8 | 9.7 | 0.00 | 0.10 | 0.00 | 83 | 1015.0 |
| 20260505151535 | 4 | 50 | 4.8 | 11.3 | 0.00 | 0.10 | 0.00 | 81 | 1015.0 |
| 20260505150551 | 5 | 75 | 4.8 | 9.7 | 0.00 | 0.10 | 0.00 | 80 | 1015.0 |
| 20260505140547 | 5 | 130 | 4.8 | 16.1 | 0.00 | 0.10 | 0.00 | 80 | 1014.9 |
| 20260505124536 | 6 | 152 | 6.4 | 11.3 | 0.00 | 0.10 | 0.00 | 78 | 1013.8 |
| 20260505123632 | 6 | 155 | 4.8 | 9.7 | 0.00 | 0.10 | 0.00 | 78 | 1013.7 |
| 20260505122608 | 6 | 88 | 1.6 | 4.8 | 0.00 | 0.10 | 0.00 | 78 | 1013.6 |
| 20260505121524 | 6 | 75 | 6.4 | 9.7 | 0.00 | 0.10 | 0.00 | 77 | 1013.2 |
| 20260505120521 | 6 | 33 | 4.8 | 9.7 | 0.00 | 0.10 | 0.00 | 76 | 1013.2 |
| 20260505115556 | 7 | 137 | 4.8 | 8.0 | 0.00 | 0.10 | 0.00 | 75 | 1013.0 |
| 20260505114533 | 7 | 183 | 4.8 | 9.7 | 0.00 | 0.10 | 0.00 | 74 | 1012.9 |
| 20260505113529 | 7 | 154 | 4.8 | 9.7 | 0.00 | 0.10 | 0.00 | 74 | 1012.9 |
| 20260505112525 | 7 | 125 | 8.0 | 14.5 | 0.00 | 0.10 | 0.00 | 74 | 1012.8 |
| 20260505111521 | 7 | 134 | 4.8 | 9.7 | 0.00 | 0.10 | 0.00 | 75 | 1012.6 |
| 20260505110517 | 7 | 131 | 4.8 | 6.4 | 0.00 | 0.10 | 0.00 | 78 | 1012.7 |
| 20260505101518 | 6 | 136 | 3.2 | 4.8 | 0.00 | 0.10 | 0.00 | 89 | 1012.7 |
| 20260505100535 | 6 | 145 | 1.6 | 4.8 | 0.00 | 0.10 | 0.00 | 90 | 1012.6 |
| 20260505095531 | 6 | 130 | 1.6 | 3.2 | 0.00 | 0.10 | 0.00 | 90 | 1012.7 |
| 20260505094527 | 6 | 125 | 1.6 | 3.2 | 0.00 | 0.10 | 0.00 | 88 | 1012.7 |
| 20260505093523 | 6 | 111 | 1.6 | 3.2 | 0.00 | 0.10 | 0.00 | 88 | 1012.8 |
| 20260505092519 | 7 | 156 | 1.6 | 3.2 | 0.00 | 0.10 | 0.00 | 87 | 1012.6 |
| 20260505091515 | 7 | 122 | 1.6 | 3.2 | 0.00 | 0.10 | 0.00 | 86 | 1012.7 |
| 20260505090551 | 7 | 133 | 1.6 | 3.2 | 0.00 | 0.10 | 0.00 | 85 | 1012.7 |
| 20260505085528 | 7 | 124 | 1.6 | 3.2 | 0.00 | 0.10 | 0.00 | 85 | 1013.0 |
| 20260505084523 | 7 | 128 | 1.6 | 3.2 | 0.00 | 0.10 | 0.00 | 84 | 1013.2 |
| 20260505083519 | 7 | 0.0 | 1.6 | 0.00 | 0.10 | 0.00 | 84 | 1013.1 | |
| 20260505082516 | 7 | 117 | 1.6 | 3.2 | 0.00 | 0.10 | 0.00 | 83 | 1013.3 |
| 20260505081532 | 8 | 125 | 0.0 | 3.2 | 0.00 | 0.10 | 0.00 | 82 | 1013.3 |
| 20260505080528 | 8 | 108 | 1.6 | 3.2 | 0.00 | 0.10 | 0.00 | 82 | 1013.5 |
| 20260505075524 | 8 | 85 | 1.6 | 3.2 | 0.00 | 0.10 | 0.00 | 81 | 1013.3 |
| 20260505074520 | 8 | 108 | 1.6 | 4.8 | 0.00 | 0.10 | 0.00 | 82 | 1013.6 |
| 20260505073516 | 8 | 84 | 1.6 | 3.2 | 0.00 | 0.10 | 0.00 | 83 | 1013.6 |
| 20260505072553 | 8 | 145 | 1.6 | 3.2 | 0.00 | 0.10 | 0.00 | 83 | 1013.7 |
| 20260505071529 | 8 | 121 | 1.6 | 3.2 | 0.00 | 0.10 | 0.00 | 83 | 1013.5 |
| 20260505070525 | 8 | 100 | 0.0 | 3.2 | 0.00 | 0.10 | 0.00 | 82 | 1013.6 |
| 20260505065521 | 8 | 97 | 1.6 | 3.2 | 0.03 | 0.10 | 0.00 | 83 | 1013.6 |
| 20260505064517 | 8 | 150 | 1.6 | 3.2 | 0.03 | 0.10 | 0.00 | 83 | 1013.6 |
| 20260505063533 | 8 | 138 | 0.0 | 3.2 | 0.03 | 0.10 | 0.00 | 83 | 1013.6 |
| 20260505062549 | 8 | 142 | 1.6 | 3.2 | 0.03 | 0.10 | 0.00 | 83 | 1013.7 |
| 20260505061525 | 8 | 150 | 0.0 | 3.2 | 0.03 | 0.10 | 0.00 | 82 | 1013.6 |
| 20260505060522 | 9 | 154 | 0.0 | 3.2 | 0.00 | 0.10 | 0.00 | 79 | 1013.7 |
| 20260505055518 | 9 | 116 | 0.0 | 3.2 | 0.00 | 0.08 | 0.08 | 74 | 1014.0 |
| 20260505054554 | 10 | 134 | 1.6 | 3.2 | 0.00 | 0.08 | 0.08 | 70 | 1014.0 |
| 20260505053530 | 10 | 52 | 1.6 | 4.8 | 0.00 | 0.08 | 0.08 | 69 | 1013.9 |
| 20260505052526 | 10 | 62 | 1.6 | 8.0 | 0.00 | 0.08 | 0.08 | 68 | 1013.8 |
| 20260505051522 | 10 | 63 | 1.6 | 4.8 | 0.00 | 0.08 | 0.08 | 68 | 1013.7 |
| 20260505050519 | 10 | 40 | 3.2 | 6.4 | 0.00 | 0.08 | 0.08 | 67 | 1013.7 |
| 20260505041519 | 10 | 18 | 1.6 | 3.2 | 0.00 | 0.08 | 0.08 | 67 | 1013.3 |
| 20260505040515 | 10 | 64 | 1.6 | 4.8 | 0.00 | 0.08 | 0.08 | 66 | 1013.2 |
| 20260505035531 | 10 | 133 | 1.6 | 6.4 | 0.00 | 0.08 | 0.08 | 66 | 1013.1 |
| 20260505034527 | 10 | 95 | 1.6 | 6.4 | 0.00 | 0.08 | 0.08 | 66 | 1013.0 |
| 20260505033523 | 10 | 66 | 3.2 | 11.3 | 0.00 | 0.08 | 0.08 | 65 | 1013.0 |
| 20260505032539 | 10 | 69 | 1.6 | 4.8 | 0.00 | 0.08 | 0.08 | 65 | 1012.9 |
| 20260505031515 | 10 | 117 | 1.6 | 3.2 | 0.00 | 0.08 | 0.08 | 67 | 1012.9 |
| 20260505030532 | 10 | 68 | 1.6 | 4.8 | 0.00 | 0.08 | 0.08 | 67 | 1012.6 |
| 20260505025528 | 10 | 111 | 1.6 | 4.8 | 0.00 | 0.08 | 0.08 | 66 | 1012.4 |
| 20260505024523 | 10 | 59 | 1.6 | 3.2 | 0.00 | 0.08 | 0.08 | 66 | 1012.7 |
| 20260505023519 | 10 | 126 | 1.6 | 3.2 | 0.00 | 0.08 | 0.08 | 66 | 1012.6 |
| 20260505022515 | 10 | 93 | 1.6 | 6.4 | 0.03 | 0.08 | 0.08 | 66 | 1012.5 |
| 20260505021532 | 10 | 31 | 3.2 | 8.0 | 0.03 | 0.08 | 0.08 | 66 | 1012.6 |
| 20260505020528 | 10 | 31 | 4.8 | 12.9 | 0.03 | 0.08 | 0.08 | 67 | 1012.9 |
| 20260505015524 | 10 | 142 | 1.6 | 4.8 | 0.08 | 0.08 | 0.08 | 79 | 1012.6 |
| 20260505014521 | 10 | 158 | 1.6 | 4.8 | 0.08 | 0.08 | 0.08 | 80 | 1012.3 |
| 20260505013556 | 10 | 181 | 1.6 | 8.0 | 0.05 | 0.08 | 0.08 | 75 | 1012.1 |
| 20260505012533 | 10 | 219 | 1.6 | 4.8 | 0.05 | 0.05 | 0.05 | 74 | 1012.4 |
| 20260505011529 | 11 | 194 | 3.2 | 4.8 | 0.05 | 0.05 | 0.05 | 70 | 1012.3 |
| 20260505010525 | 13 | 317 | 3.2 | 8.0 | 0.05 | 0.05 | 0.05 | 57 | 1012.0 |
| 20260505005520 | 13 | 30 | 3.2 | 6.4 | 0.00 | 0.00 | 0.00 | 52 | 1011.5 |
| 20260505004517 | 15 | 358 | 4.8 | 8.0 | 0.00 | 0.00 | 0.00 | 42 | 1010.9 |
| 20260505003532 | 16 | 15 | 4.8 | 11.3 | 0.00 | 0.00 | 0.00 | 37 | 1010.8 |
| 20260505002528 | 16 | 354 | 3.2 | 8.0 | 0.00 | 0.00 | 0.00 | 34 | 1010.3 |
| 20260505001524 | 16 | 57 | 1.6 | 6.4 | 0.00 | 0.00 | 0.00 | 34 | 1010.0 |
| 20260505000519 | 17 | 360 | 4.8 | 14.5 | 0.00 | 0.00 | 0.00 | 34 | 1009.9 |
| 20260504235515 | 17 | 7 | 3.2 | 8.0 | 0.00 | 0.00 | 0.00 | 34 | 1009.6 |
| 20260504234532 | 17 | 78 | 3.2 | 6.4 | 0.00 | 0.00 | 0.00 | 34 | 1009.3 |
| 20260504233527 | 17 | 63 | 4.8 | 9.7 | 0.00 | 0.00 | 0.00 | 35 | 1009.2 |
| 20260504232523 | 17 | 8 | 1.6 | 6.4 | 0.00 | 0.00 | 0.00 | 36 | 1009.3 |
| 20260504231519 | 17 | 25 | 1.6 | 3.2 | 0.00 | 0.00 | 0.00 | 38 | 1009.4 |
| 20260504230535 | 17 | 43 | 0.0 | 3.2 | 0.00 | 0.00 | 0.00 | 41 | 1009.3 |
| 20260504225530 | 17 | 33 | 1.6 | 4.8 | 0.00 | 0.00 | 0.00 | 41 | 1009.5 |
| 20260504224526 | 16 | 118 | 1.6 | 3.2 | 0.00 | 0.00 | 0.00 | 44 | 1009.3 |
| 20260504223522 | 16 | 121 | 1.6 | 3.2 | 0.00 | 0.00 | 0.00 | 44 | 1009.4 |
| 20260504222518 | 16 | 159 | 4.8 | 9.7 | 0.00 | 0.00 | 0.00 | 40 | 1009.6 |
| 20260504221534 | 15 | 143 | 6.4 | 14.5 | 0.00 | 0.00 | 0.00 | 51 | 1009.9 |
| 20260504220530 | 16 | 352 | 3.2 | 12.9 | 0.00 | 0.00 | 0.00 | 40 | 1010.3 |
| 20260504215545 | 17 | 47 | 3.2 | 6.4 | 0.00 | 0.00 | 0.00 | 38 | 1009.6 |
| 20260504214521 | 16 | 32 | 3.2 | 6.4 | 0.00 | 0.00 | 0.00 | 42 | 1009.7 |
| 20260504213517 | 18 | 10 | 3.2 | 8.0 | 0.00 | 0.00 | 0.00 | 40 | 1009.4 |
| 20260504212533 | 19 | 5 | 6.4 | 17.7 | 0.00 | 0.00 | 0.00 | 27 | 1008.9 |
| 20260504211549 | 20 | 15 | 4.8 | 16.1 | 0.00 | 0.00 | 0.00 | 25 | 1008.9 |
| 20260504210524 | 21 | 339 | 1.6 | 3.2 | 0.00 | 0.00 | 0.00 | 24 | 1008.7 |
| 20260504205541 | 21 | 325 | 0.0 | 3.2 | 0.00 | 0.00 | 0.00 | 23 | 1008.6 |
| 20260504204536 | 22 | 352 | 1.6 | 8.0 | 0.00 | 0.00 | 0.00 | 23 | 1008.9 |
| 20260504203532 | 22 | 31 | 3.2 | 9.7 | 0.00 | 0.00 | 0.00 | 24 | 1009.1 |
| 20260504202548 | 21 | 358 | 3.2 | 16.1 | 0.00 | 0.00 | 0.00 | 24 | 1009.3 |
| 20260504201524 | 21 | 9 | 3.2 | 9.7 | 0.00 | 0.00 | 0.00 | 25 | 1009.4 |
| 20260504200520 | 21 | 51 | 4.8 | 11.3 | 0.00 | 0.00 | 0.00 | 24 | 1009.6 |
| 20260504195516 | 22 | 38 | 3.2 | 6.4 | 0.00 | 0.00 | 0.00 | 22 | 1009.7 |
| 20260504194532 | 23 | 192 | 4.8 | 14.5 | 0.00 | 0.00 | 0.00 | 20 | 1009.6 |
| 20260504193528 | 22 | 280 | 1.6 | 6.4 | 0.00 | 0.00 | 0.00 | 21 | 1009.6 |
| 20260504192544 | 23 | 169 | 3.2 | 9.7 | 0.00 | 0.00 | 0.00 | 20 | 1009.6 |
| 20260504191540 | 23 | 214 | 3.2 | 6.4 | 0.00 | 0.00 | 0.00 | 20 | 1009.7 |
| 20260504190517 | 22 | 184 | 1.6 | 6.4 | 0.00 | 0.00 | 0.00 | 21 | 1010.0 |
| 20260504185533 | 24 | 185 | 3.2 | 9.7 | 0.00 | 0.00 | 0.00 | 20 | 1010.1 |
| 20260504184529 | 23 | 298 | 3.2 | 6.4 | 0.00 | 0.00 | 0.00 | 21 | 1010.2 |
| 20260504183525 | 22 | 315 | 3.2 | 9.7 | 0.00 | 0.00 | 0.00 | 20 | 1010.5 |
| 20260504182521 | 21 | 307 | 1.6 | 4.8 | 0.00 | 0.00 | 0.00 | 22 | 1010.7 |